Starlink 6182

operational
NORAD ID: 56878 Int'l Des: 2023-083 Owner: SPXS Country: US Constellation: starlink
LEOCIRCULAR

About Starlink 6182

Description loading...

Live Position

Loading 3D Globe...

Upcoming Passes

Altitude History

Altitude vs Time

uPlot chart will show altitude changes over time

Two-Line Element Set

1 56878U 23083C 25300.78490843 .00000779 00000-0 72758-4 0 9999
2 56878 43.0034 84.3280 0001301 270.8767 89.1926 15.02536687131673
Epoch: Oct 27, 2025 • Age: 25 hours

Current Status

Altitude 571.3 km
Velocity 7.58 km/s
Sub-Earth Point -42.51°S, 0.17°E
Launch Date Jun 12, 2023
Age 2.3 years
Type internet

Technical Details

Classification Payload
Mass 305.00 kg
Dry Mass 290.00 kg
Total Mass 305.00 kg
Length 0.20 m
Diameter 2.80 m
Span 9.00 m
Shape Box + pan
Manufacturer SPXS
Bus Type Starlink
Phase Status In Orbit
Owner/State SPXS/US

Large Constellations

Loading constellations...